Location: Climax
(33.2048°N, 96.4497°W)
Time: 07:28:11
(UTC+00:00)

SL-4 R/B - Pass Details

Date: 10 July 2022
Orbit: 425 x 653 km, 51.6° (Epoch: 14 August)

Event Time Altitude Azimuth Distance (km) Brightness Sun altitude
Rises 02:19:23 0° 195° (SSW) 2,383 5.1 -8.3°
Reaches altitude 10° 02:21:51 10° 177° (S) 1,508 3.9 -8.8°
Maximum altitude 02:24:22 20° 128° (SE) 1,053 2.8 -9.2°
Drops below altitude 10° 02:26:53 10° 80° (E) 1,514 3.9 -9.6°
Sets 02:29:23 0° 62° (ENE) 2,396 5.0 -10.1°
